Starlink 32664

operational
NORAD ID: 62204 Int'l Des: 2024-229 Owner: SPXS Country: US Constellation: starlink
LEOCIRCULAR

关于 Starlink 32664

正在加载描述...

实时位置

正在加载3D地球...

即将过境

高度历史

Altitude vs Time

uPlot chart will show altitude changes over time

两行轨道根数

1 62204U 24229N 25303.26966747 .00033958 00000-0 12374-2 0 9990
2 62204 43.0002 287.3979 0001040 245.2042 114.8701 15.27591894 50619
Epoch: Oct 30, 2025 • Age: 13 hours

当前状态

高度 482.8 km
速度 7.63 km/s
星下点 -3.18°S, 130.82°E
发射日期 Dec 4, 2024
运行时间 0.9 years
类型 internet

技术详情

分类 Payload
质量 730.00 kg
干质量 700.00 kg
总质量 730.00 kg
长度 0.30 m
直径 4.10 m
跨度 29.00 m
形状 Box + pan
制造商 SPXS
平台类型 Starlink V2M
阶段状态 In Orbit
所有者/国家 SPXS/US

大型星座

Loading constellations...